Left ArrowRight Arrow

39.36473, -99.84206

Hourly Observations for June 13, 2024

Temp ( °F °C ) Dew Point ( °F °C ) Humidity (%) Winds ( mph kmh ) Pressure ( in mb ) Visibility ( mi km ) Precip ( " mm )
12:53 am 00:53 Clear 79 26.1 66 18.9 65 65 SSW 6 9 29.74 1007 10 16 0.00 0.00
1:53 am 01:53 Clear 76 24.4 64 17.8 67 67 WSW 5 7 29.73 1007 10 16 0.00 0.00
2:53 am 02:53 Clear 76 24.4 64 17.8 67 67 SW 6 9 29.72 1007 10 16 0.00 0.00
3:53 am 03:53 Clear 76 24.4 64 17.8 67 67 SW 9 15 29.71 1006 10 16 0.00 0.00
4:53 am 04:53 Clear 75 23.9 65 18.3 71 71 WSW 8 13 29.70 1006 10 16 0.00 0.00
5:53 am 05:53 Clear 74 23.3 65 18.3 74 74 WSW 8 13 29.70 1006 10 16 0.00 0.00
6:53 am 06:53 Sunny 75 23.9 65 18.3 71 71 WSW 9 15 29.71 1006 10 16 0.00 0.00
7:53 am 07:53 Sunny 78 25.6 66 18.9 67 67 WSW 9 15 29.72 1007 10 16 0.00 0.00
8:53 am 08:53 Sunny 82 27.8 67 19.4 60 60 W 9 15 29.74 1007 8 13 0.00 0.00
9:53 am 09:53 Sunny 90 32.2 67 19.4 47 47 W 8 13 29.75 1007 10 16 0.00 0.00
10:53 am 10:53 Sunny 96 35.6 66 18.9 38 38 WSW 8 13 29.75 1008 10 16 0.00 0.00
11:53 am 11:53 Sunny 98 36.7 67 19.4 36 36 NW 8 13 29.77 1008 10 16 0.00 0.00
12:53 pm 12:53 Sunny 103 39.4 72 22.2 37 37 NNW 10 17 29.77 1008 10 16 0.00 0.00
1:53 pm 13:53 Sunny 105 40.6 76 24.4 40 40 NNE 16 26 29.78 1008 10 16 0.00 0.00
2:53 pm 14:53 Sunny 105 40.6 73 22.8 36 36 NNE 16 26 29.78 1008 10 16 0.00 0.00
3:53 pm 15:53 Sunny 103 39.4 73 22.8 39 39 NNE 12 19 29.78 1008 10 16 0.01 0.13
4:53 pm 16:53 Sunny 100 37.8 71 21.7 40 40 NE 12 19 29.78 1008 10 16 0.01 0.13
5:53 pm 17:53 Sunny 97 36.1 68 20 39 39 NE 14 22 29.78 1008 10 16 0.00 0.00
6:53 pm 18:53 Sunny 94 34.4 67 19.4 41 41 NE 10 17 29.79 1009 10 16 0.00 0.00
7:53 pm 19:53 Sunny 90 32.2 68 20 49 49 NE 14 22 29.81 1009 10 16 0.00 0.00
8:53 pm 20:53 Mostly Sunny 85 29.4 67 19.4 55 55 NNE 14 22 29.87 1011 10 16 0.00 0.00
9:53 pm 21:53 Clear 82 27.8 64 17.8 55 55 NE 14 22 29.90 1012 10 16 0.00 0.00
10:53 pm 22:53 Clear 80 26.7 62 16.7 54 54 NE 16 26 29.91 1013 10 16 0.00 0.00
11:53 pm 23:53 Mostly Cloudy 78 25.6 61 16.1 56 56 E 9 15 29.98 1015 10 16 0.00 0.00

Powered by Vaisala Xweather